DW3701 Weather Reports


Display with metric or nautical units.
time (UTC)temp
F
wind
direction
speed
MPH
gust
MPH
rain 1hr
in
rain 24hr
in
rain mn
in
humidity
%
barometer
mb
20201130082021 31 346 0.0 0.0 1.39 3.42 4.70 88 1015.3
20201130081526 31 346 0.0 0.0 1.40 3.40 4.58 88 1015.4
20201130081022 31 346 0.0 0.0 1.38 3.39 4.46 88 1015.6
20201130080519 31 346 0.0 0.0 1.38 3.38 4.34 88 1015.6
20201130080028 31 346 0.0 0.0 1.39 3.37 4.22 88 1015.6
20201130075529 31 346 0.0 0.0 1.38 3.50 4.10 88 1015.6
20201130065024 32 346 0.0 0.0 1.39 3.49 2.59 87 1016.9
20201130064519 32 346 0.0 0.0 1.38 3.47 2.46 87 1016.9
20201130064020 32 346 0.0 0.0 1.38 3.46 2.36 87 1017.0
20201130063513 32 346 0.0 0.0 1.38 3.45 2.23 87 1017.1
20201130063018 32 346 0.0 0.0 1.38 3.44 2.11 86 1017.0
20201130062513 32 346 0.0 0.0 1.39 3.43 2.00 87 1017.0
20201130062024 32 346 0.0 0.0 1.39 3.41 1.88 86 1017.0
20201130061519 32 346 0.0 0.0 1.37 3.40 1.76 86 1017.0
20201130061023 32 346 0.0 0.0 1.38 3.39 1.65 86 1017.0
20201130060514 32 346 0.0 0.0 1.38 3.38 1.53 86 1017.0
20201130055018 33 346 0.0 0.0 1.39 3.49 1.18 86 1017.3
20201130054507 33 346 0.0 0.0 1.38 3.47 1.06 86 1017.4
20201130054011 33 346 0.0 0.0 1.38 3.46 9.48 86 1017.4
20201130053509 33 346 0.0 0.0 1.37 3.45 8.24 86 1017.4
20201130053017 33 346 0.0 0.0 1.38 3.44 7.12 86 1017.4
20201130052510 33 346 0.0 0.0 1.37 3.43 5.92 85 1017.4
20201130052100 33 346 0.0 0.0 1.38 3.42 5.08 85 1017.4
20201130051712 33 346 0.0 0.0 1.38 3.41 3.88 85 1017.4
20201130051132 33 346 0.0 0.0 1.38 3.39 2.68 85 1017.4
20201130050604 33 346 0.0 0.0 1.38 3.38 1.48 85 1017.3
20201130045104 33 346 0.0 0.0 1.37 3.49 3.35 85 1017.2
20201130044701 33 346 0.0 0.0 1.38 3.47 3.33 85 1017.2
20201130044103 33 346 0.0 0.0 1.37 3.46 3.32 85 1017.3
20201130043606 33 346 0.0 0.0 1.38 3.45 3.31 84 1017.4
20201130043154 33 346 0.0 0.0 1.38 3.44 3.30 84 1017.5
20201130042559 33 346 0.0 0.0 1.38 3.43 3.29 84 1017.5
20201130042101 33 346 0.0 2.0 1.38 3.42 3.28 84 1017.6
20201130041648 33 347 0.0 3.0 1.38 3.40 3.26 83 1017.6
20201130041104 33 348 0.0 3.0 1.38 3.39 3.25 83 1017.7
20201130040608 33 200 0.0 0.0 1.38 3.38 3.24 83 1017.7
20201130035100 34 199 0.0 0.0 1.38 3.49 3.21 83 1017.4
20201130034735 34 199 0.0 0.0 1.37 3.47 3.19 83 1017.5
20201130034055 34 200 0.0 0.0 1.38 3.46 3.18 83 1017.5
20201130033557 34 200 0.0 0.0 1.38 3.45 3.17 82 1017.5
20201130033207 35 200 0.0 0.0 1.38 3.44 3.16 82 1017.5
20201130032557 35 200 0.0 0.0 1.40 3.43 3.15 82 1017.5
20201130032059 35 200 0.0 0.0 1.40 3.42 3.14 81 1017.4
20201130031640 35 199 0.0 0.0 1.39 3.40 3.12 81 1017.5
20201130031055 35 199 0.0 0.0 1.40 3.39 3.11 80 1017.5
20201130030608 36 200 0.0 0.0 1.40 3.38 3.10 80 1017.7
20201130030152 36 199 0.0 0.0 1.40 3.37 3.09 80 1017.7
20201130025553 36 200 0.0 0.0 1.40 3.50 3.08 80 1017.7
20201130025059 36 200 0.0 0.0 1.39 3.49 3.06 80 1017.5
20201130024626 36 200 0.0 0.0 1.40 3.47 3.05 80 1017.3
20201130024053 36 199 0.0 0.0 1.40 3.46 3.04 80 1017.3
20201130023552 36 199 0.0 0.0 1.40 3.45 3.03 80 1017.2
20201130023149 36 200 0.0 0.0 1.40 3.44 3.02 80 1017.2
20201130022552 36 199 0.0 1.0 1.40 3.43 3.01 79 1017.3
20201130022052 36 200 0.0 1.0 1.40 3.42 2.99 79 1017.3
20201130021626 36 200 0.0 0.0 1.40 3.40 2.98 79 1017.4
20201130021106 37 200 0.0 0.0 1.40 3.39 2.97 79 1017.5
20201130020551 37 199 0.0 0.0 1.40 3.38 2.96 79 1017.5
20201130020129 37 200 0.0 0.0 1.41 3.37 2.95 79 1017.4
20201130015551 37 200 0.0 0.0 1.39 3.50 2.94 79 1017.3
20201130015052 37 199 0.0 0.0 1.39 3.49 2.92 79 1017.0
20201130014705 37 200 0.0 0.0 1.40 3.47 2.91 78 1016.9
20201130014139 37 200 0.0 0.0 1.40 3.46 2.90 78 1017.1
20201130013549 38 199 0.0 0.0 1.39 3.45 2.89 78 1017.1
20201130013206 38 200 0.0 0.0 1.40 3.44 2.88 77 1017.1
20201130012555 38 200 0.0 0.0 1.40 3.43 2.87 77 1017.3
20201130012048 38 199 0.0 0.0 1.39 3.42 2.85 76 1017.2
20201130011658 38 199 0.0 0.0 1.39 3.40 2.84 76 1017.2
20201130011116 38 200 0.0 0.0 1.41 3.39 2.83 76 1017.3
20201130010547 39 200 0.0 0.0 1.40 3.38 2.82 75 1017.3
20201130010109 39 199 0.0 0.0 1.40 3.37 2.81 74 1017.4
20201130005556 39 200 0.0 0.0 1.40 3.50 2.80 73 1017.6
20201130005047 39 200 0.0 0.0 1.41 3.49 2.78 73 1017.7
20201130004648 40 199 0.0 0.0 1.40 3.47 2.77 72 1017.6
20201130004047 40 199 0.0 0.0 1.40 3.46 2.76 71 1017.6
20201130003545 40 200 0.0 0.0 1.40 3.45 2.75 70 1017.7
20201130003138 41 200 0.0 0.0 1.40 3.44 2.74 69 1017.7
20201130002549 41 199 0.0 0.0 1.40 3.43 2.73 68 1017.8
20201130002044 41 200 0.0 0.0 1.39 3.42 2.71 67 1017.9
20201130001600 42 200 0.0 0.0 1.40 3.40 2.70 66 1017.9
20201130001055 42 199 0.0 0.0 1.40 3.39 2.69 65 1018.1
20201130000550 43 199 0.0 0.0 1.40 3.38 2.68 65 1018.1
20201130000111 43 200 0.0 0.0 1.40 3.37 2.67 64 1018.2
20201129235544 44 200 0.0 0.0 1.40 3.50 2.66 62 1018.1
20201129234642 44 200 0.0 0.0 1.40 3.47 2.63 61 1018.3
20201129234043 44 200 0.0 0.0 1.40 3.46 2.62 61 1018.4
20201129233544 45 200 0.0 2.0 1.40 3.45 2.61 60 1018.5
20201129233207 45 199 0.0 2.0 1.40 3.44 2.60 59 1018.5
20201129232601 45 200 0.0 0.0 1.40 3.43 2.58 59 1018.5
20201129232043 45 200 0.0 1.0 1.40 3.42 2.57 59 1018.7
20201129231601 45 199 0.0 2.0 1.39 3.40 2.56 59 1018.6
20201129231049 45 200 0.0 2.0 1.40 3.39 2.55 58 1018.7
20201129230545 45 200 0.0 1.0 1.40 3.38 2.54 58 1018.6
20201129230144 45 199 0.0 0.0 1.40 3.37 2.53 58 1018.7
20201129225551 46 199 0.0 0.0 1.40 3.50 2.51 58 1018.6
20201129225048 46 200 0.0 0.0 1.39 3.49 2.50 57 1018.5
20201129224618 46 200 0.0 0.0 1.40 3.48 2.49 57 1018.4
20201129224100 46 199 0.0 1.0 1.40 3.46 2.48 57 1018.3
20201129223545 46 199 0.0 1.0 1.39 3.45 2.47 56 1018.3
20201129223134 46 199 0.0 0.0 1.40 3.44 2.46 56 1018.3
20201129222550 46 199 0.0 3.0 1.39 3.43 2.44 56 1018.3
20201129222051 46 199 0.0 4.0 1.40 3.42 2.43 55 1018.4
20201129221628 47 199 0.0 5.0 1.39 3.40 2.42 55 1018.4
20201129221046 47 200 0.0 5.0 1.40 3.39 2.41 55 1018.4
20201129220542 47 186 0.0 3.0 1.40 3.38 2.40 55 1018.2
20201129220148 47 186 0.0 3.0 1.40 3.37 2.39 54 1018.1
20201129215548 47 184 0.0 3.0 1.39 3.50 2.37 54 1017.9
20201129215040 47 183 0.0 3.0 1.39 3.49 2.36 54 1018.0
20201129214558 47 184 0.0 2.0 1.40 3.47 2.35 54 1018.1
20201129214040 48 184 0.0 2.0 1.39 3.46 2.34 53 1018.0
20201129213540 48 184 0.0 4.0 1.39 3.45 2.33 53 1017.9
20201129213149 48 184 0.0 4.0 1.39 3.44 2.32 53 1017.8
20201129212553 48 182 0.0 4.0 1.40 3.43 2.30 53 1017.7
20201129212040 49 184 0.0 3.0 1.39 3.42 2.29 53 1017.8
20201129211607 49 184 0.0 4.0 1.39 3.40 2.28 52 1017.8
20201129211041 49 180 0.0 6.0 1.39 3.39 2.27 52 1017.8
20201129210541 49 143 0.0 3.0 1.40 3.38 2.26 52 1017.8
20201129210150 49 207 0.0 1.0 1.40 3.37 2.25 52 1017.6
20201129205540 50 209 0.0 5.0 1.38 3.50 2.23 51 1017.7
20201129205039 50 196 0.0 5.0 1.40 3.49 2.22 51 1017.8
20201129204601 50 148 0.0 5.0 1.40 3.47 2.21 50 1017.8
20201129204039 50 195 0.0 6.0 1.39 3.46 2.20 50 1017.7
20201129203543 50 184 0.0 6.0 1.39 3.45 2.19 49 1017.8
20201129203110 50 108 0.0 6.0 1.40 3.44 2.17 49 1017.7
20201129202552 51 224 0.0 8.0 1.40 3.43 2.16 49 1017.6
20201129202057 51 211 3.0 8.0 1.39 3.41 2.15 48 1017.6
20201129201550 51 155 0.0 4.0 1.40 3.40 2.14 48 1017.5
20201129201042 51 180 0.0 4.0 1.39 3.39 2.13 48 1017.3
20201129200536 51 196 1.0 6.0 1.39 3.38 2.12 49 1017.3
20201129200128 51 190 0.0 6.0 1.40 3.37 2.10 49 1017.2
20201129195552 51 189 2.0 6.0 1.40 3.50 2.09 49 1017.2
20201129195035 51 171 1.0 9.0 1.39 3.48 2.08 49 1017.2
20201129194602 51 211 4.0 9.0 1.39 3.47 2.07 50 1017.3
20201129194038 51 224 0.0 3.0 1.39 3.46 2.06 51 1017.3
20201129193540 51 202 0.0 6.0 1.39 3.45 2.05 51 1017.4
20201129193109 50 214 0.0 6.0 1.40 3.44 2.03 51 1017.4
20201129192556 50 191 0.0 6.0 1.39 3.43 2.02 51 1017.3
20201129192034 50 156 2.0 9.0 1.39 3.41 2.01 51 1017.3
20201129184622 51 157 1.0 6.0 1.40 3.47 1.93 52 1017.6
20201129184030 51 215 1.0 6.0 1.40 3.46 1.92 52 1017.8
20201129183538 50 162 0.0 6.0 1.38 3.45 1.90 53 1017.9
20201129183051 50 237 1.0 10.0 1.40 3.44 1.89 53 1017.8
20201129182530 50 199 5.0 10.0 1.39 3.43 1.88 53 1018.0
20201129182033 50 209 0.0 5.0 1.39 3.42 1.87 54 1017.9
20201129145026 39 360 0.0 0.0 1.39 3.49 1.38 82 1019.9
20201129144527 39 360 0.0 0.0 1.38 3.47 1.37 82 1019.9
20201129144024 38 360 0.0 4.0 1.40 3.46 1.35 82 1020.0
20201129143538 38 360 0.0 4.0 1.38 3.45 1.34 83 1020.1
20201129143018 38 207 0.0 2.0 1.38 3.44 1.33 84 1020.0
20201129142528 38 207 0.0 2.0 1.38 3.43 1.32 85 1020.0
20201129142024 37 207 0.0 0.0 1.39 3.41 1.31 87 1019.9
20201129141525 37 207 0.0 0.0 1.38 3.40 1.30 88 1019.9
20201129141015 36 207 0.0 0.0 1.39 3.39 1.28 88 1019.7
20201129140525 36 206 0.0 0.0 1.38 3.38 1.27 89 1019.8
20201129140029 35 207 0.0 0.0 1.38 3.37 1.26 89 1019.6
20201129135518 35 207 0.0 0.0 1.38 3.50 1.25 90 1019.7
20201129135007 34 207 0.0 2.0 1.38 3.48 1.24 90 1019.6
20201129134758 34 207 0.0 3.0 1.38 3.47 1.23 90 1019.5
20201129134103 34 207 0.0 3.0 1.39 3.46 1.22 91 1019.4
20201129133559 33 207 0.0 0.0 1.38 3.45 1.20 91 1019.4
20201129133249 33 207 0.0 0.0 1.38 3.44 1.19 91 1019.5
20201129132556 32 207 0.0 1.0 1.38 3.43 1.18 91 1019.5
20201129132115 32 206 0.0 1.0 1.40 3.42 1.17 91 1019.5
20201129131621 32 206 0.0 0.0 1.40 3.40 1.16 91 1019.6
20201129131049 31 206 0.0 0.0 1.40 3.39 1.15 91 1019.5
20201129130556 31 206 0.0 0.0 1.40 3.38 1.13 91 1019.5
20201129130115 31 206 0.0 0.0 1.40 3.37 1.12 91 1019.4
20201129125545 31 206 0.0 0.0 1.39 3.50 1.11 91 1019.4
20201129125044 30 206 0.0 3.0 1.40 3.49 1.10 91 1019.3
20201129124624 30 206 0.0 3.0 1.40 3.47 1.09 91 1019.2
20201129124050 30 206 0.0 1.0 1.39 3.46 1.07 90 1019.2
20201129123548 30 206 0.0 0.0 1.39 3.45 1.06 90 1019.2
20201129123153 30 206 0.0 0.0 1.40 3.44 1.05 90 1019.2
20201129122540 30 206 0.0 0.0 1.40 3.43 1.04 90 1019.3
20201129122042 30 206 0.0 0.0 1.39 3.42 1.03 90 1019.4
20201129121724 30 206 0.0 0.0 1.39 3.40 1.02 90 1019.3
20201129121035 30 206 0.0 0.0 1.40 3.39 1.00 90 1019.3
20201129120546 30 206 0.0 0.0 1.40 3.38 9.97 90 1019.3
20201129120123 30 206 0.0 0.0 1.40 3.37 9.85 90 1019.1
20201129115535 30 206 0.0 0.0 1.39 3.50 9.73 90 1019.1
20201129115040 30 206 0.0 0.0 1.39 3.48 9.61 90 1019.0
20201129114554 30 206 0.0 0.0 1.40 3.47 9.50 90 1019.0
20201129114035 30 206 0.0 0.0 1.39 3.46 9.38 90 1019.0
20201129113535 30 206 0.0 0.0 1.39 3.45 9.26 90 1019.0
20201129113051 30 206 0.0 0.0 1.40 3.44 9.14 90 1019.0
20201129112532 30 206 0.0 0.0 1.39 3.43 9.02 90 1019.0
20201129112036 30 206 0.0 0.0 1.39 3.41 8.91 90 1019.0
20201129111546 30 206 0.0 0.0 1.39 3.40 8.79 90 1019.1
20201129111033 30 206 0.0 0.0 1.39 3.39 8.67 90 1019.1
20201129110548 30 206 0.0 0.0 1.39 3.38 8.56 89 1019.0
20201129110038 30 206 0.0 0.0 1.40 3.37 8.45 89 1019.0
20201129105541 30 206 0.0 0.0 1.39 3.50 8.32 89 1019.0
20201129105037 30 206 0.0 0.0 1.39 3.48 8.20 89 1018.9
20201129104603 30 206 0.0 0.0 1.40 3.47 8.10 89 1018.9
20201129104029 30 206 0.0 0.0 1.40 3.46 7.98 89 1018.9
20201129103540 31 206 0.0 0.0 1.40 3.45 7.85 89 1019.0
20201129103033 31 206 0.0 0.0 1.39 3.44 7.74 88 1019.0
20201129102535 31 206 0.0 0.0 1.40 3.43 7.63 89 1019.0
20201129102028 31 206 0.0 0.0 1.38 3.41 7.50 89 1019.0
20201129101536 31 206 0.0 0.0 1.39 3.40 7.38 88 1019.1
20201129101026 31 206 0.0 0.0 1.40 3.39 7.28 88 1019.1
20201129100539 31 206 0.0 0.0 1.39 3.38 7.15 88 1019.0
20201129100053 31 206 0.0 0.0 1.39 3.37 7.04 88 1019.1
20201129095532 31 206 0.0 0.0 1.38 3.50 6.92 88 1019.1
20201129095028 31 206 0.0 0.0 1.38 3.49 6.80 88 1019.2
20201129094550 31 206 0.0 0.0 1.39 3.47 6.68 88 1019.1
20201129094025 31 206 0.0 0.0 1.39 3.46 6.56 88 1019.1
20201129093534 32 206 0.0 0.0 1.40 3.45 6.45 88 1019.1
20201129093046 32 205 0.0 0.0 1.38 3.44 6.33 88 1019.0
20201129092526 32 205 0.0 0.0 1.38 3.43 6.21 88 1019.0
20201129092029 32 205 0.0 0.0 1.39 3.42 6.10 88 1019.1
20201129091530 32 199 0.0 0.0 1.39 3.40 5.98 88 1019.2
20201129091036 32 196 0.0 0.0 1.38 3.39 5.86 88 1019.0
20201129090531 32 197 0.0 0.0 1.40 3.38 5.75 88 1019.0
20201129090027 32 196 0.0 0.0 1.39 3.37 5.63 88 1019.0
20201129085526 32 197 0.0 0.0 1.39 3.50 5.52 88 1019.0
20201129085037 32 197 0.0 1.0 1.40 3.49 5.40 87 1019.0
20201129084536 32 197 0.0 1.0 1.39 3.47 5.28 87 1018.8
20201129084021 32 197 0.0 0.0 1.39 3.46 5.16 87 1018.8
20201129083520 32 197 0.0 0.0 1.38 3.45 5.04 86 1018.8
20201129083045 32 197 0.0 0.0 1.40 3.44 4.93 86 1018.8
20201129082518 32 196 0.0 0.0 1.40 3.43 4.81 86 1018.8